Regional Weather Roundup
Issued by NWS

Home | Current Version | Previous Version | Graphics & Text | Print | Product List | Glossary On
Versions: 1 2 3 4 5 6 7 8 9 10 11 12 13 14 15 16 17 18 19 20 21 22 23 24 25 26 27 28 29 30 31 32 33 34 35 36 37 38 39 40 41 42 43 44 45 46 47 48 49 50
000
ASUS43 KDTX 292201
RWRMI
MICHIGAN HOURLY REGIONAL WEATHER ROUNDUP
NATIONAL WEATHER SERVICE DETROIT/PONTIAC MI
600 PM EDT SUN MAY 29 2016

NOTE: "FAIR" INDICATES FEW OR NO CLOUDS BELOW 12,000 FEET WITH NO
SIGNIFICANT WEATHER AND/OR OBSTRUCTION TO VISIBILITY.

MIZ047>049-052>055-059>063-066>070-074>076-081>083-292300-
SOUTHEAST LOWER MICHIGAN

CITY           SKY/WX    TMP DP  RH WIND       PRES   REMARKS
ADRIAN         MOSUNNY   86  53  32 W22G28    29.94S
ALMA           MOSUNNY   78  57  47 MISG      29.93R
ANN ARBOR      SUNNY     85  57  38 W21G29    29.92S
CARO           PTSUNNY   82  58  44 W13G21    29.89S
DETROIT CITY   CLOUDY    78  65  63 S12       29.92S
DETROIT        CLOUDY    81  63  54 S13       29.92F
FLINT          SUNNY     87  53  31 W20G29    29.90S
GROSSE ILE     CLOUDY    77  63  61 S13       29.91F
HILLSDALE      MOSUNNY   82  41  23 W13G22    29.97S
HOWELL         SUNNY     85  51  30 SW18G26   29.92S

CITY           SKY/WX    TMP DP  RH WIND       PRES   REMARKS
JACKSON        MOSUNNY   82  52  35 SW15      29.94S
LAMBERTVILLE   CLOUDY    82  61  48 SW9       29.94S
LANSING        MOSUNNY   81  57  43 W17G24    29.93F
LAPEER         FAIR      80  65  59 SW7       29.91F
MASON          MOSUNNY   83  54  36 SW10G23   29.93F
MONROE         MOSUNNY   77  67  72 S12       29.92F
MT. CLEMENS    PTSUNNY   77  66  69 S6        29.91R
PONTIAC        CLOUDY    83  65  54 VRB3      29.91F
PORT HOPE        N/A     75  65  70 S6        29.88F
PORT HURON     RAIN      64  63  94 SE5G18    29.95R
TRI CITIES     SUNNY     83  57  41 W22G33    29.90S
MIDLAND        FAIR      80  57  44 SW18G28   29.89S
TROY           CLOUDY    83  61  47 CALM      29.93S
SAGINAW HB     MOSUNNY   82  52  34 W20       29.89S
$$
MIZ043>046-050>051-056>058-064>065-071>073-077>080-292300-
SOUTHWEST LOWER MICHIGAN

CITY           SKY/WX    TMP DP  RH WIND       PRES   REMARKS
BATTLE CREEK   SUNNY     79  59  50 W21G26    29.96F
BENTON HARBOR  SUNNY     75  59  57 W15       29.99F
BIG RAPIDS     PTSUNNY   74  58  57 SW14G25   29.93S
COLDWATER      MOSUNNY   82  51  34 W14G24    29.95F
FREMONT        FAIR      75  58  53 SW15      29.94F
HOLLAND        SUNNY     75  59  57 SW18      29.98F
GRAND RAPIDS   MOSUNNY   78  58  49 W22G31    29.96S
IONIA          FAIR      77  55  45 W23G30    29.94R
KALAMAZOO      SUNNY     79  55  43 W18G26    29.97F
LUDINGTON      CLOUDY    69  59  70 SW15G21   29.93F
MARSHALL       MOSUNNY   82  59  45 W17G25    29.94F
MOUNT PLEASANT SUNNY     78  57  49 W20G28    29.91F
MUSKEGON       MOSUNNY   75  58  55 SW13      29.95F
SOUTH HAVEN    SUNNY     74  59  58 W9        29.99S
$$
MIZ016>042-292300-
NORTHERN LOWER MICHIGAN

CITY           SKY/WX    TMP DP  RH WIND       PRES   REMARKS
ALPENA         CLOUDY    82  54  37 SW21G30   29.84S
BEAVER ISLAND  MOSUNNY   66  58  76 SW20G29   29.85F
BELLAIRE       PTSUNNY   75  56  52 SW8G22    29.88R
CADILLAC       CLOUDY    70  58  65 W16G22    29.93R
CHARLEVOIX     CLOUDY    73  59  63 SW15G25   29.89S
FRANKFORT      CLOUDY    66  60  81 SW7       29.91S
GAYLORD        PTSUNNY   73  56  54 SW17G31   29.89S
GRAYLING       PTSUNNY   77  57  49 SW17G23   29.90S
HARBOR SPRINGS CLOUDY    67  58  72 W9G18     29.86S
HOUGHTON LAKE  MOSUNNY   76  57  51 SW15G23   29.90F
MANISTEE       CLOUDY    72  57  60 SW10G16   29.92F
OSCODA         PTSUNNY   85  52  32 W21       29.85S
PELLSTON       PTSUNNY   72  58  61 SW14G24   29.85F
ROGERS CITY    CLOUDY    73  61  65 W8        29.85F
TRAVERSE CITY  CLOUDY    73  57  57 SW12G24   29.87R
$$
MIZ007>008-015-292300-
EASTERN UPPER MICHIGAN

CITY           SKY/WX    TMP DP  RH WIND       PRES   REMARKS
KINROSS          N/A     70  59  68 SW13G24   29.84R
MACKINAC ISLAN PTSUNNY   65  56  73 SW18G30   29.85S
NEWBERRY       PTSUNNY   69  61  74 S20       29.81F
S. S. MARIE    PTSUNNY   72  58  61 SW14G26   29.82R
MUNISING         N/A     59  57  93 NE3       29.80F
$$
MIZ004>006-011>014-085-292300-
CENTRAL UPPER MICHIGAN

CITY           SKY/WX    TMP DP  RH WIND       PRES   REMARKS
MANISTIQUE     LGT RAIN  55  54  97 S9        29.82F
ESCANABA       MOSUNNY   64  63  94 S7        29.81F
MENOMINEE      PTSUNNY   74  60  61 SW13G18   29.84S
SAWYER-GWINN   CLOUDY    66  61  82 W7        29.82S
$$
MIZ001>003-009>011-084-292300-
WESTERN UPPER MICHIGAN

CITY           SKY/WX    TMP DP  RH WIND       PRES   REMARKS
IRON MOUNTAIN  CLOUDY    73  58  59 SW10G25   29.82R
HOUGHTON       CLOUDY    64  55  72 W21G30    29.79S
COPPER HARBOR    N/A     64  59  83 NW8       29.77F
IRONWOOD       CLOUDY    64  57  77 W7        29.84S
$$

ABBREVIATIONS USED IN REMARKS
   TC - TEMPERATURE IN CELSIUS
  WCI - WIND CHILL INDEX
   HX - HEAT INDEX
  VSB - VISIBILITY





USA.gov is the U.S. government's official web portal to all federal, state and local government web resources and services.